User: anonymous   Login
Location: Azul
(36.7830°S, 59.8500°W)
Time: 00:51:18
(UTC-03:00)
Language:

PRISM - Orbit

View from above orbital plane
View from above orbital plane
View from above satellite
View from above satellite

Ground track
Ground track

The orbit data is extracted from the following two-line orbital elements,

1 33493U 09002B   21295.45934938  .00001740  00000-0  15278-3 0  9995
2 33493  98.2041 264.2451 0013820 221.1479 138.8701 14.97973639693332
Epoch (UTC): 22 October 2021 11:01:27
Eccentricity: 0.0013820
inclination: 98.2041°
perigee height: 563 km
apogee height: 583 km
right ascension of ascending node: 264.2451°
argument of perigee: 221.1479°
revolutions per day: 14.97973639
mean anomaly at epoch: 138.8701°
orbit number at epoch: 69333

The dashed part of the orbit path shows where the satellite is in the earth's shadow,  

DLR